EW9431 Weather Reports


Display with metric or nautical units.
time (UTC)temp
F
wind
direction
speed
MPH
gust
MPH
rain 1hr
in
rain 24hr
in
rain mn
in
humidity
%
barometer
mb
20260509152512 55 84 0.0 2.0 0.00 0.00 0.00 75 1022.6
20260509152011 55 84 0.0 2.0 0.00 0.00 0.00 75 1022.6
20260509151510 55 84 0.0 2.0 0.00 0.00 0.00 75 1022.6
20260509151009 54 45 0.0 2.0 0.00 0.00 0.00 76 1022.6
20260509150509 54 33 0.0 2.0 0.00 0.00 0.00 77 1022.7
20260509150009 54 360 0.0 1.0 0.00 0.00 0.00 77 1022.7
20260509145509 54 360 0.0 2.0 0.00 0.00 0.00 76 1022.7
20260509145008 54 360 0.0 2.0 0.00 0.00 0.00 77 1022.6
20260509144508 54 360 0.0 3.0 0.00 0.00 0.00 77 1022.7
20260509144006 54 338 0.0 3.0 0.00 0.00 0.00 77 1022.6
20260509143505 53 344 1.0 4.0 0.00 0.00 0.00 76 1022.6
20260509143004 53 343 1.0 5.0 0.00 0.00 0.00 76 1022.6
20260509142504 53 326 3.0 6.0 0.00 0.00 0.00 76 1022.6
20260509142002 53 336 3.0 6.0 0.00 0.00 0.00 76 1022.6
20260509141502 53 360 3.0 6.0 0.00 0.00 0.00 76 1022.6
20260509141003 53 316 2.0 6.0 0.00 0.00 0.00 76 1022.6
20260509140501 54 326 2.0 6.0 0.00 0.00 0.00 76 1022.6
20260509140000 54 336 3.0 6.0 0.00 0.00 0.00 77 1022.6
20260509135600 54 303 2.0 4.0 0.00 0.00 0.00 77 1022.7
20260509135059 54 338 1.0 3.0 0.00 0.00 0.00 80 1022.6
20260509134605 54 322 1.0 3.0 0.00 0.00 0.00 80 1022.6
20260509134056 53 360 1.0 3.0 0.00 0.00 0.00 81 1022.7
20260509133556 52 360 1.0 2.0 0.00 0.00 0.00 80 1022.7
20260509133056 52 30 0.0 5.0 0.00 0.00 0.00 81 1022.7
20260509132558 52 29 2.0 5.0 0.00 0.00 0.00 83 1022.7
20260509132054 51 308 2.0 8.0 0.00 0.00 0.00 80 1022.7
20260509131555 51 320 4.0 8.0 0.00 0.00 0.00 80 1022.7
20260509131054 51 307 3.0 6.0 0.00 0.00 0.00 80 1022.7
20260509130553 51 318 2.0 5.0 0.00 0.00 0.00 80 1022.7
20260509130055 51 330 2.0 4.0 0.00 0.00 0.00 80 1022.7
20260509125552 51 24 0.0 4.0 0.00 0.00 0.00 80 1022.6
20260509125052 51 5 0.0 3.0 0.00 0.00 0.00 80 1022.6
20260509124555 51 352 1.0 3.0 0.00 0.00 0.00 80 1022.6
20260509124052 51 349 0.0 2.0 0.00 0.00 0.00 80 1022.6
20260509123552 51 349 0.0 3.0 0.00 0.00 0.00 80 1022.6
20260509123050 51 349 1.0 3.0 0.00 0.00 0.00 80 1022.6
20260509122550 51 360 1.0 3.0 0.00 0.00 0.00 80 1022.6
20260509122050 51 10 1.0 5.0 0.00 0.00 0.00 79 1022.6
20260509121556 51 330 2.0 5.0 0.00 0.00 0.00 79 1022.6
20260509121050 51 18 1.0 2.0 0.00 0.00 0.00 79 1022.7
20260509120549 51 5 1.0 3.0 0.00 0.00 0.00 79 1022.7
20260509120101 51 338 1.0 4.0 0.00 0.00 0.00 79 1022.7
20260509115551 51 292 2.0 4.0 0.00 0.00 0.00 80 1022.7
20260509115048 51 20 1.0 3.0 0.00 0.00 0.00 80 1022.7
20260509114548 51 350 2.0 3.0 0.00 0.00 0.00 80 1022.7
20260509114048 51 360 0.0 2.0 0.00 0.00 0.00 80 1022.7
20260509113547 51 360 0.0 3.0 0.00 0.00 0.00 80 1022.7
20260509113050 51 360 1.0 3.0 0.00 0.00 0.00 79 1022.8
20260509112546 51 5 0.0 3.0 0.00 0.00 0.00 79 1022.7
20260509112046 51 360 1.0 3.0 0.00 0.00 0.00 79 1022.7
20260509111546 51 51 0.0 4.0 0.00 0.00 0.00 79 1022.7
20260509111047 51 16 2.0 4.0 0.00 0.00 0.00 79 1022.7
20260509110545 51 24 2.0 5.0 0.00 0.00 0.00 79 1022.7
20260509110047 51 360 2.0 5.0 0.00 0.00 0.00 79 1022.6
20260509105544 51 42 1.0 4.0 0.00 0.00 0.00 79 1022.6
20260509105043 51 52 0.0 4.0 0.00 0.00 0.00 79 1022.6
20260509104543 51 62 1.0 4.0 0.00 0.00 0.00 79 1022.6
20260509104042 50 353 1.0 4.0 0.00 0.00 0.00 79 1022.5
20260509103541 50 360 0.0 5.0 0.00 0.00 0.00 79 1022.5
20260509103040 50 338 1.0 6.0 0.00 0.00 0.00 79 1022.5
20260509102539 50 24 2.0 8.0 0.00 0.00 0.00 80 1022.5
20260509102039 50 330 4.0 8.0 0.00 0.00 0.00 80 1022.5
20260509101545 50 360 3.0 6.0 0.00 0.00 0.00 80 1022.5
20260509101038 50 354 4.0 6.0 0.00 0.00 0.00 80 1022.5
20260509100537 50 349 3.0 5.0 0.00 0.00 0.00 80 1022.4
20260509100043 50 349 2.0 5.0 0.00 0.00 0.00 80 1022.3
20260509095536 50 55 2.0 5.0 0.00 0.00 0.00 80 1022.3
20260509095036 49 336 2.0 6.0 0.00 0.00 0.00 80 1022.4
20260509094537 49 10 2.0 6.0 0.00 0.00 0.00 80 1022.4
20260509094036 49 22 1.0 3.0 0.00 0.00 0.00 80 1022.5
20260509093535 49 45 0.0 2.0 0.00 0.00 0.00 80 1022.4
20260509093036 49 45 1.0 3.0 0.00 0.00 0.00 80 1022.4
20260509092535 49 356 1.0 5.0 0.00 0.00 0.00 80 1022.3
20260509092034 49 5 2.0 6.0 0.00 0.00 0.00 81 1022.3
20260509091535 49 337 2.0 6.0 0.00 0.00 0.00 81 1022.3
20260509091033 49 16 3.0 7.0 0.00 0.00 0.00 80 1022.4
20260509090533 49 346 2.0 6.0 0.00 0.00 0.00 80 1022.3
20260509090034 49 5 3.0 5.0 0.00 0.00 0.00 79 1022.4
20260509085530 49 334 2.0 5.0 0.00 0.00 0.00 79 1022.4
20260509085029 50 29 1.0 3.0 0.00 0.00 0.00 79 1022.3
20260509084530 50 32 1.0 4.0 0.00 0.00 0.00 78 1022.4
20260509084030 50 360 2.0 4.0 0.00 0.00 0.00 78 1022.4
20260509083528 50 47 2.0 3.0 0.00 0.00 0.00 78 1022.4
20260509083027 50 24 1.0 4.0 0.00 0.00 0.00 78 1022.5
20260509082526 50 24 1.0 4.0 0.00 0.00 0.00 78 1022.5
20260509082026 51 41 2.0 3.0 0.00 0.00 0.00 77 1022.5
20260509081525 51 41 1.0 3.0 0.00 0.00 0.00 77 1022.5
20260509081026 51 41 2.0 3.0 0.00 0.00 0.00 77 1022.4
20260509080522 51 25 1.0 3.0 0.00 0.00 0.00 77 1022.5
20260509080021 51 25 1.0 3.0 0.00 0.00 0.00 77 1022.5
20260509075520 52 45 1.0 3.0 0.00 0.00 0.00 77 1022.4
20260509075021 52 29 1.0 3.0 0.00 0.00 0.00 76 1022.4
20260509074518 52 39 2.0 3.0 0.00 0.00 0.00 76 1022.4
20260509074016 53 10 1.0 3.0 0.00 0.00 0.00 76 1022.4
20260509073519 53 10 1.0 2.0 0.00 0.00 0.00 76 1022.5
20260509073025 53 10 1.0 2.0 0.00 0.00 0.00 76 1022.4
20260509072516 53 10 0.0 2.0 0.00 0.00 0.00 76 1022.4
20260509072016 53 10 0.0 2.0 0.00 0.00 0.00 76 1022.4
20260509071512 53 10 1.0 2.0 0.00 0.00 0.00 75 1022.3
20260509071012 53 10 1.0 2.0 0.00 0.00 0.00 75 1022.3
20260509070511 54 10 0.0 1.0 0.00 0.00 0.00 75 1022.3
20260509070010 54 10 0.0 3.0 0.00 0.00 0.00 74 1022.3
20260509065509 54 10 1.0 3.0 0.00 0.00 0.00 74 1022.4
20260509065010 54 73 1.0 2.0 0.00 0.00 0.00 74 1022.3
20260509064610 54 74 0.0 3.0 0.00 0.00 0.00 74 1022.4
20260509064028 54 62 0.0 3.0 0.00 0.00 0.00 74 1022.4
20260509063619 54 51 0.0 3.0 0.00 0.00 0.00 74 1022.4
20260509063025 54 51 1.0 3.0 0.00 0.00 0.00 74 1022.4
20260509062621 54 51 1.0 3.0 0.00 0.00 0.00 74 1022.4
20260509062019 54 70 0.0 2.0 0.00 0.00 0.00 73 1022.4
20260509061620 54 49 1.0 2.0 0.00 0.00 0.00 73 1022.4
20260509061021 54 37 1.0 2.0 0.00 0.00 0.00 73 1022.4
20260509060619 54 90 0.0 1.0 0.00 0.00 0.00 73 1022.4
20260509060029 54 90 0.0 2.0 0.00 0.00 0.00 73 1022.5
20260509055622 54 90 0.0 3.0 0.00 0.00 0.00 73 1022.4
20260509055019 54 44 0.0 2.0 0.00 0.00 0.00 73 1022.4
20260509054619 54 44 0.0 2.0 0.00 0.00 0.00 72 1022.3
20260509054021 54 44 0.0 2.0 0.00 0.00 0.00 72 1022.3
20260509053619 54 44 1.0 2.0 0.00 0.00 0.00 72 1022.3
20260509053027 54 44 1.0 2.0 0.00 0.00 0.00 72 1022.3
20260509052619 54 44 0.0 2.0 0.00 0.00 0.00 71 1022.3
20260509052119 54 44 0.0 2.0 0.00 0.00 0.00 71 1022.2
20260509051520 54 44 0.0 3.0 0.00 0.00 0.00 71 1022.2
20260509051120 55 79 0.0 3.0 0.00 0.00 0.00 71 1022.2
20260509050620 55 48 1.0 3.0 0.00 0.00 0.00 71 1022.2
20260509050021 55 45 1.0 4.0 0.00 0.00 0.00 70 1022.2
20260509045519 55 57 1.0 4.0 0.00 0.00 0.00 70 1022.2
20260509045119 55 72 1.0 3.0 0.00 0.00 0.00 70 1022.2
20260509044532 55 91 1.0 3.0 0.00 0.00 0.00 70 1022.1
20260509044119 55 61 1.0 3.0 0.00 0.00 0.00 70 1022.2
20260509043621 55 34 0.0 3.0 0.00 0.00 0.00 70 1022.1
20260509043030 55 31 0.0 2.0 0.00 0.00 0.00 69 1022.1
20260509042619 55 85 1.0 3.0 0.00 0.00 0.00 69 1022.0
20260509042020 55 70 1.0 3.0 0.00 0.00 0.00 69 1022.0
20260509041623 55 111 1.0 2.0 0.00 0.00 0.00 69 1021.9
20260509041019 55 111 1.0 2.0 0.00 0.00 0.00 69 1021.9
20260509040619 55 193 0.0 3.0 0.00 0.00 0.00 69 1021.9
20260509040020 55 115 1.0 3.0 0.00 0.00 0.00 69 1021.8
20260509035619 55 95 0.0 2.0 0.00 0.00 0.00 69 1021.7
20260509035021 56 166 0.0 3.0 0.00 0.00 0.00 68 1021.6
20260509034619 56 142 1.0 3.0 0.00 0.00 0.00 68 1021.6
20260509034022 56 131 0.0 5.0 0.00 0.00 0.00 67 1021.6
20260509033520 56 143 1.0 5.0 0.00 0.00 0.00 67 1021.5
20260509033119 56 73 1.0 4.0 0.00 0.00 0.00 66 1021.5
20260509032522 56 158 1.0 3.0 0.00 0.00 0.00 66 1021.5
20260509032120 56 170 1.0 6.0 0.00 0.00 0.00 66 1021.4
20260509031520 56 174 1.0 5.0 0.00 0.00 0.00 66 1021.3
20260509031123 56 160 2.0 5.0 0.00 0.00 0.00 66 1021.4
20260509030520 57 155 1.0 6.0 0.00 0.00 0.00 65 1021.3
20260509030120 57 184 2.0 6.0 0.00 0.00 0.00 65 1021.3
20260509025519 57 126 2.0 5.0 0.00 0.00 0.00 65 1021.3
20260509025119 57 157 2.0 5.0 0.00 0.00 0.00 65 1021.2
20260509024519 57 158 2.0 5.0 0.00 0.00 0.00 64 1021.1
20260509024119 57 176 2.0 5.0 0.00 0.00 0.00 64 1021.2
20260509023520 58 160 2.0 8.0 0.00 0.00 0.00 63 1021.1
20260509023119 58 141 5.0 8.0 0.00 0.00 0.00 62 1021.1
20260509022519 58 158 2.0 9.0 0.00 0.00 0.00 63 1021.0
20260509022121 59 164 6.0 9.0 0.00 0.00 0.00 62 1021.0
20260509021621 59 199 0.0 4.0 0.00 0.00 0.00 61 1021.0
20260509021021 59 120 2.0 6.0 0.00 0.00 0.00 61 1020.9
20260509020621 59 174 2.0 6.0 0.00 0.00 0.00 61 1020.9
20260509020019 60 147 2.0 7.0 0.00 0.00 0.00 60 1020.9
20260509015620 60 107 1.0 4.0 0.00 0.00 0.00 60 1020.9
20260509015020 60 114 2.0 8.0 0.00 0.00 0.00 60 1020.9
20260509014619 59 176 2.0 8.0 0.00 0.00 0.00 60 1020.9
20260509014021 59 262 0.0 5.0 0.00 0.00 0.00 61 1020.9
20260509013620 59 182 1.0 5.0 0.00 0.00 0.00 60 1020.9
20260509013020 59 10 1.0 5.0 0.00 0.00 0.00 60 1020.9
20260509012619 59 22 1.0 5.0 0.00 0.00 0.00 60 1020.9
20260509012020 59 187 1.0 6.0 0.00 0.00 0.00 60 1020.9
20260509011620 59 162 4.0 6.0 0.00 0.00 0.00 59 1020.8
20260509011021 60 105 1.0 6.0 0.00 0.00 0.00 59 1020.8
20260509010621 60 106 2.0 10.0 0.00 0.00 0.00 60 1020.8
20260509010032 60 181 5.0 10.0 0.00 0.00 0.00 59 1020.9
20260509005619 60 182 1.0 6.0 0.00 0.00 0.00 60 1020.8
20260509005019 60 174 3.0 6.0 0.00 0.00 0.00 59 1020.8
20260509004619 60 208 2.0 6.0 0.00 0.00 0.00 60 1020.8
20260509004020 60 89 2.0 7.0 0.00 0.00 0.00 60 1020.7
20260509003620 60 240 3.0 7.0 0.00 0.00 0.00 59 1020.8
20260509003119 60 169 2.0 6.0 0.00 0.00 0.00 60 1020.8
20260509002519 60 114 1.0 9.0 0.00 0.00 0.00 61 1020.8
20260509002121 60 228 2.0 10.0 0.00 0.00 0.00 60 1020.8
20260509001519 60 134 4.0 10.0 0.00 0.00 0.00 61 1020.8
20260509001120 60 187 2.0 11.0 0.00 0.00 0.00 60 1020.8
20260509000519 60 197 6.0 11.0 0.00 0.00 0.00 60 1020.8
20260509000119 60 226 3.0 10.0 0.00 0.00 0.00 60 1020.8
20260508235520 60 229 5.0 10.0 0.00 0.00 0.00 61 1020.8
20260508235119 60 160 3.0 8.0 0.00 0.00 0.00 61 1020.7
20260508234519 60 126 4.0 8.0 0.00 0.00 0.00 61 1020.7
20260508234019 59 166 3.0 10.0 0.00 0.00 0.00 62 1020.7
20260508233621 59 149 6.0 10.0 0.00 0.00 0.00 62 1020.6
20260508233019 59 217 5.0 10.0 0.00 0.00 0.00 62 1020.5
20260508232619 59 176 6.0 12.0 0.00 0.00 0.00 62 1020.6
20260508232019 59 181 5.0 10.0 0.00 0.00 0.00 63 1020.6
20260508231620 59 178 5.0 10.0 0.00 0.00 0.00 63 1020.7
20260508231019 59 168 4.0 9.0 0.00 0.00 0.00 64 1020.7
20260508230620 59 131 3.0 8.0 0.00 0.00 0.00 64 1020.7
20260508230023 59 193 1.0 11.0 0.00 0.00 0.00 64 1020.8
20260508225619 59 180 4.0 11.0 0.00 0.00 0.00 64 1020.7
20260508225020 59 95 4.0 10.0 0.00 0.00 0.00 64 1020.5
20260508224621 59 319 2.0 8.0 0.00 0.00 0.00 65 1020.4
20260508224023 59 20 2.0 6.0 0.00 0.00 0.00 66 1020.4
20260508223619 59 51 2.0 6.0 0.00 0.00 0.00 67 1020.3
20260508223035 58 73 2.0 8.0 0.00 0.00 0.00 66 1020.4
20260508222620 58 37 4.0 8.0 0.00 0.00 0.00 66 1020.4
20260508222018 58 89 1.0 6.0 0.00 0.00 0.00 68 1020.5
20260508221619 58 164 0.0 5.0 0.00 0.00 0.00 67 1020.5
20260508221022 57 48 3.0 5.0 0.00 0.00 0.00 68 1020.5
20260508220619 57 43 1.0 6.0 0.00 0.00 0.00 69 1020.5
20260508220022 57 110 1.0 6.0 0.00 0.00 0.00 71 1020.5
20260508215623 56 220 1.0 5.0 0.00 0.00 0.00 70 1020.4
20260508215020 56 360 1.0 9.0 0.00 0.00 0.00 70 1020.4
20260508214619 56 68 3.0 9.0 0.00 0.00 0.00 71 1020.3
20260508214018 56 222 0.0 3.0 0.00 0.00 0.00 71 1020.4
20260508213618 56 203 1.0 4.0 0.00 0.00 0.00 71 1020.4
20260508213034 56 163 2.0 6.0 0.00 0.00 0.00 70 1020.5
20260508212619 56 177 2.0 6.0 0.00 0.00 0.00 70 1020.5
20260508212023 56 155 2.0 7.0 0.00 0.00 0.00 71 1020.5
20260508211619 56 257 1.0 8.0 0.00 0.00 0.00 71 1020.4
20260508211020 56 198 3.0 8.0 0.00 0.00 0.00 70 1020.3
20260508210020 56 156 5.0 11.0 0.00 0.00 0.00 69 1020.1
20260508205621 56 143 5.0 10.0 0.00 0.00 0.00 70 1020.2
20260508205019 56 164 4.0 10.0 0.00 0.00 0.00 70 1019.9
20260508204619 56 191 5.0 10.0 0.00 0.00 0.00 70 1020.0
20260508204026 56 139 5.0 9.0 0.00 0.00 0.00 70 1019.9
20260508203621 56 184 4.0 10.0 0.00 0.00 0.00 70 1019.9
20260508203019 56 144 4.0 9.0 0.00 0.00 0.00 69 1019.9
20260508202623 56 173 4.0 8.0 0.00 0.00 0.00 69 1019.9
20260508202018 56 161 3.0 8.0 0.00 0.00 0.00 69 1019.8
20260508201621 56 93 2.0 6.0 0.00 0.00 0.00 69 1019.8
20260508201047 56 21 2.0 6.0 0.00 0.00 0.00 71 1019.7
20260508200520 56 83 0.0 4.0 0.00 0.00 0.00 71 1019.7
20260508200120 56 171 1.0 4.0 0.00 0.00 0.00 72 1019.7
20260508195518 55 112 1.0 6.0 0.00 0.00 0.00 71 1019.6
20260508195121 55 211 1.0 6.0 0.00 0.00 0.00 71 1019.6
20260508194519 55 201 2.0 8.0 0.00 0.00 0.00 72 1019.5
20260508194119 55 202 3.0 8.0 0.00 0.00 0.00 72 1019.5
20260508193519 55 122 4.0 8.0 0.00 0.00 0.00 73 1019.5
20260508193122 55 147 1.0 6.0 0.00 0.00 0.00 74 1019.4
20260508192519 55 355 1.0 6.0 0.00 0.00 0.00 74 1019.3
20260508192119 55 172 1.0 12.0 0.00 0.00 0.00 74 1019.2
20260508191522 55 150 3.0 12.0 0.00 0.00 0.00 74 1019.2
20260508191119 55 160 4.0 8.0 0.00 0.00 0.00 74 1019.2
20260508190527 55 228 1.0 14.0 0.00 0.00 0.00 74 1019.0
20260508190119 55 153 4.0 14.0 0.00 0.00 0.00 74 1019.0
20260508185519 55 173 1.0 12.0 0.00 0.00 0.00 75 1019.0
20260508185121 55 200 5.0 12.0 0.00 0.00 0.00 76 1018.9
20260508184619 55 130 3.0 9.0 0.00 0.00 0.00 77 1018.8
20260508184019 55 63 2.0 8.0 0.00 0.00 0.00 77 1018.6
20260508183619 55 195 2.0 10.0 0.00 0.00 0.00 77 1018.5
20260508183019 56 150 6.0 13.0 0.00 0.00 0.00 76 1018.7
20260508182620 56 211 6.0 13.0 0.00 0.00 0.00 75 1018.8
20260508182018 57 177 3.0 10.0 0.00 0.00 0.00 75 1018.7
20260508181619 57 201 3.0 10.0 0.00 0.00 0.00 74 1018.6
20260508181018 57 222 1.0 7.0 0.00 0.00 0.00 74 1018.4
20260508180619 57 145 1.0 7.0 0.00 0.00 0.00 74 1018.3
20260508180024 57 343 1.0 5.0 0.00 0.00 0.00 74 1018.3
20260508175619 57 64 3.0 9.0 0.00 0.00 0.00 74 1018.2
20260508175019 57 185 2.0 9.0 0.00 0.00 0.00 75 1018.1
20260508174619 57 191 5.0 9.0 0.00 0.00 0.00 74 1018.1
20260508174019 58 99 3.0 8.0 0.00 0.00 0.00 74 1018.0
20260508173620 58 347 1.0 8.0 0.00 0.00 0.00 74 1018.1
20260508173019 58 227 3.0 10.0 0.00 0.00 0.00 74 1018.1
20260508172619 58 227 2.0 10.0 0.00 0.00 0.00 74 1017.9
20260508172022 58 147 2.0 5.0 0.00 0.00 0.00 74 1017.9
20260508171622 58 231 1.0 8.0 0.00 0.00 0.00 74 1017.8
20260508171018 58 215 3.0 11.0 0.00 0.00 0.00 75 1017.7
20260508170619 57 144 4.0 11.0 0.00 0.00 0.00 75 1017.6
20260508170019 57 202 1.0 12.0 0.00 0.00 0.00 75 1017.5
20260508165619 57 181 3.0 12.0 0.00 0.00 0.00 75 1017.5
20260508165019 57 51 2.0 8.0 0.00 0.00 0.00 76 1017.5
20260508164619 57 43 1.0 10.0 0.00 0.00 0.00 77 1017.6
20260508164021 57 67 2.0 10.0 0.00 0.00 0.00 77 1017.5
20260508163619 57 10 0.0 9.0 0.00 0.00 0.00 77 1017.5
20260508163020 57 336 3.0 7.0 0.00 0.00 0.00 77 1017.6
20260508162619 57 162 3.0 7.0 0.00 0.00 0.00 77 1017.5
20260508162018 57 270 3.0 9.0 0.00 0.00 0.00 77 1017.3
20260508161619 57 191 4.0 10.0 0.00 0.00 0.00 77 1017.4
20260508161020 57 179 3.0 10.0 0.00 0.00 0.00 77 1017.2
20260508160620 57 183 2.0 8.0 0.00 0.00 0.00 77 1017.2
20260508160043 56 249 2.0 5.0 0.00 0.00 0.00 78 1017.1
20260508155618 56 205 2.0 4.0 0.00 0.00 0.00 78 1017.0
20260508155019 56 298 1.0 5.0 0.00 0.00 0.00 78 1017.1
20260508154620 56 157 1.0 7.0 0.00 0.00 0.00 78 1017.0
20260508154021 56 87 2.0 7.0 0.00 0.00 0.00 78 1017.2
20260508153619 56 172 3.0 6.0 0.00 0.00 0.00 78 1017.3
20260508153020 56 183 2.0 7.0 0.00 0.00 0.00 79 1017.2